[[{"header":{"parameterUnit":"m.s-1","parameterCategory":1,"la1":30.2991,"la2":30.254,"lo1":-89.0895,"lo2":-89.0444,"dy":0.0017,"dx":0.0017,"nx":28,"ny":28,"refTime":"2025-03-21T09:00:00:Z","depth":0,"parameterNumber":2,"parameterNumberName":"U-component_of_WINDS"},"data":[0,0,0,0,0,0,0,0,0,0,0,0,0,0,0,0,0,0,0,0,0,0,0,0,0,0,0,0,0,0,0,0,0,0,0,0,0,0,0,0,0,0,0,0,0,0,0,0,0,0,0,0,0,0,0,0,0,0,1.7135,1.7136,0,1.7264,1.7265,1.7267,1.7339,1.7339,1.734,1.734,1.7473,1.7476,1.748,0,0,0,0,0,0,0,0,0,0,0,0,0,1.6954,1.6957,1.7135,1.7136,1.7138,1.7264,1.7265,1.7267,1.7339,1.7339,1.734,1.734,1.7472,1.7476,1.748,0,0,0,0,0,0,0,0,0,0,0,0,0,1.7053,1.6958,1.7135,1.7189,1.7195,1.7263,1.7265,1.7268,1.7339,1.7339,1.734,1.734,1.7471,1.7476,1.7481,1.7505,0,0,1.7496,1.7498,0,0,0,0,0,0,0,0,1.7047,1.7059,1.718,1.7185,1.7193,1.7286,1.7251,1.7347,1.7339,1.7285,1.734,1.734,1.7411,1.7421,1.7444,1.7511,1.7517,1.7496,1.7499,1.7502,1.7503,0,0,0,0,0,0,0,1.704,1.7054,1.7186,1.7181,1.7189,1.7208,1.7223,1.7269,1.7344,1.7289,1.7295,1.7309,1.7414,1.7439,1.7448,1.7519,1.7496,1.7501,1.7504,1.7506,1.7615,1.7615,0,0,0,0,0,0,1.7024,1.7048,1.7182,1.719,1.7119,1.7211,1.7227,1.7256,1.7344,1.7358,1.7309,1.7312,1.743,1.7442,1.7453,1.7489,1.7502,1.7506,1.7509,1.7615,1.7615,1.7615,0,0,0,0,0,0,1.702,1.7035,1.7177,1.7121,1.714,1.7214,1.7245,1.7258,1.7283,1.7358,1.7372,1.732,1.7431,1.7446,1.7492,1.7494,1.7508,1.7513,1.7615,1.7615,1.7615,1.7559,0,0,0,0,0,0,1.7015,1.7034,1.7043,1.712,1.7143,1.7212,1.7245,1.726,1.7291,1.7297,1.7373,1.7386,1.7433,1.7484,1.7497,1.7502,1.7517,1.7615,1.7615,1.7615,1.7561,1.7557,1.7554,0,0,0,0,0,1.7008,1.7022,1.7043,1.7058,1.7155,1.7212,1.7225,1.7278,1.7291,1.7301,1.735,1.7383,1.7492,1.7488,1.7503,1.7509,1.7615,1.7615,1.7615,1.7563,1.7558,1.7554,0,0,0,0,0,0,1.6942,1.7033,1.7057,1.7096,1.7146,1.7224,1.7239,1.7271,1.7319,1.7322,1.7387,1.7403,1.7444,1.7481,1.7475,1.7539,1.7557,1.756,1.7513,1.7509,1.7505,1.7496,1.7521,0,0,0,0,0,1.6932,1.697,1.7048,1.7075,1.7098,1.7164,1.7191,1.7228,1.7282,1.7304,1.7356,1.7408,1.7455,1.7484,1.753,1.7567,1.7586,1.7579,1.7575,1.7572,1.7574,1.7599,1.7597,1.7614,1.7614,1.7614,0,0,1.6912,1.6966,1.6986,1.7063,1.7106,1.7145,1.7182,1.7221,1.7251,1.731,1.7357,1.7397,1.746,1.7502,1.7524,1.7535,1.7573,1.7572,1.7568,1.7572,1.7598,1.7597,1.7595,1.7614,1.7614,1.7614,0,0,1.6896,1.694,1.6968,1.7011,1.7076,1.712,1.7127,1.7201,1.723,1.7278,1.7324,1.7361,1.7439,1.7482,1.7515,1.7517,1.755,1.753,1.7511,1.7535,1.7533,1.7533,1.7535,1.7535,1.7532,1.7532,1.7532,0,1.6863,1.6923,1.6979,1.7017,1.705,1.7105,1.7136,1.7174,1.7251,1.7273,1.7285,1.7385,1.7431,1.7485,1.7486,1.7509,1.7521,1.7522,1.7529,1.7529,1.7529,1.7532,1.7533,1.7529,1.7529,1.753,1.753,0,1.688,1.6922,1.6937,1.701,1.7045,1.7078,1.7141,1.717,1.7204,1.7247,1.7297,1.7354,1.7414,1.743,1.7463,1.7489,1.7495,1.7516,1.7537,1.7524,1.7528,1.753,1.7525,1.7526,1.7527,1.7528,0,0,1.6826,1.6931,1.6935,1.697,1.7047,1.708,1.7117,1.7176,1.7201,1.7252,1.7286,1.7351,1.7373,1.7409,1.7448,1.7468,1.7469,1.7489,1.7491,1.7484,1.7504,1.7488,1.7489,1.7491,1.7492,1.7492,1.75,0,1.6822,1.689,1.6943,1.6992,1.7032,1.7086,1.7119,1.717,1.7211,1.7252,1.7299,1.7345,1.7369,1.7392,1.7414,1.7464,1.7474,1.7464,1.7525,1.7526,1.7508,1.7491,1.7473,1.7478,1.7502,1.7502,1.7502,0,1.6826,1.6876,1.6929,1.7004,1.7023,1.7051,1.711,1.7148,1.7208,1.7237,1.7279,1.7319,1.7362,1.7378,1.7439,1.7431,1.7459,1.7488,1.749,1.7498,1.7514,1.75,1.748,1.7481,1.7505,1.7505,1.7504,0,1.6784,1.6864,1.6907,1.6935,1.7022,1.7041,1.7078,1.7139,1.7171,1.7223,1.7246,1.7302,1.7333,1.7376,1.7432,1.7437,1.7488,1.7508,1.7515,1.7514,1.7524,1.7523,1.7509,1.7539,1.7539,1.7539,1.7539,0,1.6775,1.6805,1.6889,1.6916,1.6953,1.7013,1.7048,1.709,1.7144,1.7181,1.723,1.7264,1.7334,1.7377,1.7421,1.7466,1.7479,1.7505,1.7517,1.7502,1.7498,1.7521,1.7523,1.754,1.754,1.7539,1.7539,0,1.6733,1.679,1.6841,1.692,1.6941,1.6964,1.7033,1.7061,1.7106,1.7152,1.7166,1.7237,1.729,1.7349,1.7421,1.7451,1.7494,1.751,1.7474,1.748,1.7485,1.7484,1.7487,1.7491,1.7517,1.7516,1.7516,0,1.6724,1.6749,1.6831,1.6859,1.6895,1.694,1.6974,1.7035,1.7068,1.7139,1.716,1.7216,1.7265,1.7347,1.7406,1.7462,1.748,1.7477,1.7489,1.7474,1.7482,1.7481,1.7484,1.7474,1.7474,1.7473,1.7473,0,1.6703,1.673,1.6777,1.6834,1.6873,1.6921,1.6971,1.6992,1.7063,1.7098,1.7153,1.7191,1.7265,1.7321,1.7385,1.7425,1.7461,1.7469,1.7474,1.7459,1.7438,1.7451,1.7466,1.7468,1.7469,1.7469,1.7469,1.747,1.6679,1.6705,1.6767,1.6818,1.6862,1.6908,1.6939,1.6988,1.7035,1.71,1.7133,1.7188,1.725,1.7339,1.7378,1.7422,1.7434,1.7441,1.7443,1.7444,1.744,1.7429,1.7434,1.7434,1.7435,1.7435,1.7435,0,1.6662,1.6705,1.6751,1.682,1.686,1.689,1.6948,1.698,1.7027,1.7081,1.7128,1.7192,1.7247,1.7311,1.737,1.7394,1.7412,1.7408,1.7407,1.7416,1.7426,1.7416,1.7392,1.7392,1.7392,1.7392,1.7392,1.7392,1.6658,1.6704,1.6739,1.6807,1.6851,1.6904,1.6935,1.6978,1.7022,1.7091,1.7137,1.7177,1.7236,1.73,1.7353,1.737,1.7391,1.7381,1.7404,1.7412,1.7415,1.7419,1.741,1.7385,1.7385,1.7391,1.7391,1.7391]},{"header":{"parameterUnit":"m.s-1","parameterCategory":1,"la1":30.2991,"la2":30.254,"lo1":-89.0895,"lo2":-89.0444,"dy":0.0017,"dx":0.0017,"nx":28,"ny":28,"refTime":"2025-03-21T09:00:00:Z","depth":0,"parameterNumber":3,"parameterNumberName":"V-component_of_WINDS"},"data":[0,0,0,0,0,0,0,0,0,0,0,0,0,0,0,0,0,0,0,0,0,0,0,0,0,0,0,0,0,0,0,0,0,0,0,0,0,0,0,0,0,0,0,0,0,0,0,0,0,0,0,0,0,0,0,0,0,0,0.0675,0.0675,0,0.0658,0.0658,0.0658,0.0651,0.0651,0.0651,0.0651,0.0634,0.0633,0.0633,0,0,0,0,0,0,0,0,0,0,0,0,0,0.07,0.07,0.0675,0.0675,0.0675,0.0658,0.0658,0.0658,0.0651,0.0651,0.0651,0.0651,0.0634,0.0633,0.0633,0,0,0,0,0,0,0,0,0,0,0,0,0,0.0687,0.07,0.0675,0.0669,0.0669,0.0659,0.0658,0.0658,0.0651,0.0651,0.0651,0.0651,0.0634,0.0633,0.0633,0.0627,0,0,0.063,0.063,0,0,0,0,0,0,0,0,0.0688,0.0686,0.067,0.067,0.0669,0.0657,0.0661,0.0647,0.0651,0.0658,0.0651,0.0652,0.0641,0.064,0.0637,0.0626,0.0625,0.063,0.063,0.0629,0.0629,0,0,0,0,0,0,0,0.0689,0.0687,0.0668,0.067,0.0669,0.0667,0.0666,0.0658,0.0649,0.0657,0.0657,0.0655,0.0641,0.0637,0.0636,0.0625,0.063,0.0629,0.0629,0.0629,0.0608,0.0608,0,0,0,0,0,0,0.0691,0.0688,0.0669,0.0668,0.0679,0.0667,0.0665,0.0661,0.065,0.0648,0.0655,0.0655,0.0639,0.0637,0.0636,0.0628,0.0629,0.0629,0.0628,0.0608,0.0608,0.0608,0,0,0,0,0,0,0.0691,0.0689,0.067,0.0678,0.0675,0.0666,0.0662,0.066,0.0657,0.0648,0.0646,0.0653,0.0639,0.0637,0.0629,0.0627,0.0628,0.0628,0.0608,0.0608,0.0608,0.0612,0,0,0,0,0,0,0.0692,0.0689,0.0687,0.0678,0.0675,0.0664,0.0662,0.066,0.0656,0.0655,0.0645,0.0644,0.0639,0.063,0.0628,0.0626,0.0627,0.0608,0.0608,0.0608,0.0612,0.0612,0.0612,0,0,0,0,0,0.0693,0.0689,0.0687,0.0685,0.0672,0.0663,0.0662,0.0656,0.0656,0.0653,0.0647,0.0644,0.0628,0.0629,0.0627,0.0625,0.0608,0.0608,0.0608,0.0612,0.0612,0.0612,0,0,0,0,0,0,0.0698,0.0688,0.0686,0.0678,0.0672,0.0662,0.0659,0.0656,0.0649,0.0649,0.0642,0.064,0.0633,0.0628,0.063,0.0618,0.0618,0.0617,0.0622,0.0622,0.0622,0.0623,0.0626,0,0,0,0,0,0.0699,0.0693,0.0684,0.0679,0.0675,0.0668,0.0664,0.066,0.0653,0.065,0.0644,0.0637,0.063,0.0625,0.0619,0.0611,0.0609,0.0609,0.0609,0.0609,0.0608,0.0604,0.0604,0.0607,0.0607,0.0607,0,0,0.07,0.0693,0.069,0.0679,0.0674,0.0668,0.0666,0.0659,0.0655,0.0649,0.0642,0.0636,0.0628,0.0621,0.0617,0.0616,0.0607,0.0609,0.0609,0.0608,0.0604,0.0603,0.0603,0.0607,0.0607,0.0607,0,0,0.0698,0.0692,0.0687,0.0682,0.0674,0.0669,0.0667,0.0658,0.0655,0.0647,0.0642,0.0637,0.0625,0.0619,0.0615,0.0611,0.0608,0.0609,0.0609,0.0605,0.0605,0.0605,0.0603,0.0603,0.0608,0.0608,0.0608,0,0.07,0.0691,0.0685,0.0679,0.0675,0.0669,0.0664,0.0659,0.0649,0.0646,0.0645,0.0631,0.0625,0.0616,0.0615,0.0611,0.0609,0.061,0.0605,0.0605,0.0605,0.0603,0.0603,0.0609,0.0609,0.0609,0.0609,0,0.0693,0.0687,0.0684,0.0675,0.067,0.0664,0.0657,0.0653,0.065,0.0645,0.0637,0.0629,0.0621,0.0618,0.0615,0.0609,0.0609,0.0607,0.0606,0.0605,0.0603,0.0603,0.0609,0.0609,0.0609,0.0609,0,0,0.0695,0.0682,0.0681,0.0677,0.0667,0.0662,0.0656,0.0649,0.0645,0.0638,0.0633,0.0623,0.0621,0.0616,0.0612,0.0608,0.0606,0.0607,0.0607,0.0607,0.0598,0.06,0.0599,0.0603,0.0603,0.0603,0.0599,0,0.0692,0.0681,0.0676,0.0667,0.0662,0.0656,0.0651,0.0645,0.064,0.0634,0.0628,0.0622,0.062,0.0617,0.0613,0.0607,0.0604,0.0607,0.0598,0.0598,0.0601,0.0599,0.06,0.0597,0.0599,0.0598,0.0598,0,0.0687,0.0681,0.0672,0.0663,0.066,0.0656,0.0648,0.0643,0.0635,0.0632,0.0626,0.0622,0.0615,0.0614,0.0605,0.0607,0.0603,0.06,0.0599,0.0598,0.0598,0.0598,0.0595,0.0595,0.0597,0.0597,0.0597,0,0.0689,0.0678,0.0671,0.0668,0.0657,0.0654,0.065,0.0642,0.0638,0.0631,0.0628,0.062,0.0616,0.061,0.0603,0.0604,0.0594,0.0593,0.0591,0.0591,0.0589,0.059,0.0587,0.0587,0.0587,0.0587,0.0587,0,0.0686,0.0681,0.0672,0.0668,0.0662,0.0655,0.065,0.0645,0.0638,0.0632,0.0627,0.0622,0.0614,0.0608,0.0603,0.0596,0.0594,0.0591,0.0589,0.0591,0.0592,0.0589,0.0589,0.0587,0.0587,0.0587,0.0587,0,0.0688,0.0681,0.0674,0.0664,0.0662,0.0658,0.065,0.0645,0.064,0.0633,0.0631,0.0623,0.0616,0.0609,0.0599,0.0595,0.0588,0.0586,0.0591,0.059,0.0588,0.0588,0.0583,0.0582,0.0583,0.0583,0.0583,0,0.0686,0.0682,0.0673,0.0669,0.0664,0.0658,0.0654,0.0647,0.0643,0.0633,0.063,0.0622,0.0616,0.0604,0.0597,0.0589,0.0587,0.0586,0.0586,0.0588,0.0587,0.0588,0.0587,0.0586,0.0586,0.0586,0.0586,0,0.0685,0.0682,0.0676,0.0668,0.0663,0.0657,0.0651,0.0648,0.064,0.0635,0.0628,0.0622,0.0612,0.0604,0.0596,0.0591,0.0587,0.0586,0.0585,0.0587,0.059,0.0588,0.0591,0.0586,0.0586,0.0586,0.0586,0.0586,0.0685,0.0681,0.0674,0.0667,0.0661,0.0656,0.0651,0.0645,0.0639,0.0631,0.0627,0.0619,0.0611,0.0599,0.0594,0.0588,0.0587,0.0586,0.0586,0.0585,0.0586,0.0591,0.0586,0.0586,0.0586,0.0586,0.0586,0,0.0683,0.0678,0.0672,0.0663,0.0658,0.0655,0.0648,0.0644,0.0637,0.063,0.0624,0.0615,0.0608,0.06,0.0592,0.0588,0.0586,0.0586,0.0587,0.0585,0.0587,0.0589,0.0588,0.0588,0.0588,0.0588,0.0588,0.0588,0.0681,0.0675,0.0671,0.0662,0.0656,0.0649,0.0645,0.064,0.0634,0.0625,0.0619,0.0614,0.0607,0.0598,0.0591,0.0589,0.0586,0.0586,0.0584,0.0585,0.0585,0.0585,0.0587,0.0586,0.0586,0.0583,0.0583,0.0583]}]]